General Aviation Weather

Text Reports

Enter one or more of the following location identifiers separated by a space:

Zip Code, Four-Character ICAO or Three-Character IATA airport codes.

METAR - Aviation Routine Weather Report
KFYJ - West Point, Virginia
Updated at 12:15 PM GMT on August 21, 2014 (8:15 AM EDT):
METAR KFYJ 211215Z AUTO 00000KT 10SM OVC008 25/22 A3006 RMK AO2 T02500223
TAF - Terminal Area Forecast
KFYJ - West Point, Virginia
Updated at 12:15 PM GMT on August 21, 2014 (8:15 AM EDT):
No TAF is currently available for this location.
Decoded:
No decoded TAF is available.
PIREP - Pilot Weather Report
KFYJ - West Point, Virginia
Updated at 12:15 PM GMT on August 21, 2014 (8:15 AM EDT):
No PIREP is currently available for this location.
AIRMET - Airmens Meteorological Information
KFYJ - West Point, Virginia
Updated at 12:15 PM GMT on August 21, 2014 (8:15 AM EDT):
No AIRMET is currently available for this location.
SIGMET - Significant Meteorological Information
KFYJ - West Point, Virginia
Updated at 12:15 PM GMT on August 21, 2014 (8:15 AM EDT):
No SIGMET is currently available for this location.
NOTAM - Notice to Airmen
KFYJ - West Point, Virginia
Updated at 12:15 PM GMT on August 21, 2014 (8:15 AM EDT):
No NOTAM is currently available for this location.
Forecast Area
KFYJ - West Point, Virginia
Updated at 12:15 PM GMT on August 21, 2014 (8:15 AM EDT):
No NOTAM is currently available for this location.
Aviation Weather Maps